Location: UBC Liquid-Mirror Observatory
(49.2876°N, 122.5728°W)
Time: 02:21:22
(UTC-08:00)

Daily predictions for brighter satellites

Satellite Brightness Start Highest point End
(mag) Time Altitude Azimuth Time Altitude Azimuth Time Altitude Azimuth
Cosmos 2344 4.4 02:29:14 49° N 02:29:14 49° N 02:37:14 10° NE
ATLAS CENTAUR R/B 4.5 03:15:18 34° SE 03:15:18 34° SE 03:21:50 10° SE
ADEOS II 3.1 03:42:25 10° NNE 03:47:24 41° E 03:48:13 38° ESE
Lacrosse 5 3.8 03:49:14 22° SE 03:49:25 22° SE 03:53:16 10° ENE
Okean O Rocket 3.3 03:48:08 10° NNE 03:50:29 30° NE 03:50:29 30° NE
USA 234 4.3 03:49:43 10° ENE 03:55:40 37° SE 03:57:37 31° SSE
ADEOS Rocket 3.5 03:54:13 10° N 04:00:00 52° NW 04:00:00 52° NW
CZ-2D R/B 3.9 04:01:06 10° N 04:03:05 20° NNW 04:03:05 20° NNW
Cosmos 2278 Rocket 4.1 04:07:07 17° NNW 04:07:07 17° NNW 04:09:51 10° N
Cosmos 2369 Rocket 2.2 04:07:22 74° SE 04:07:31 74° ESE 04:13:11 10° NNE
Resurs 1-4 Rocket 4.0 04:03:00 10° N 04:04:49 19° NNW 04:04:49 19° NNW
Cosmos 407 Rocket 3.6 04:08:27 72° NE 04:08:45 74° ENE 04:14:05 10° SSE
Lacrosse 4 Rocket 4.0 04:12:04 12° N 04:12:04 12° N 04:12:35 10° N
IRAS Rocket 4.2 04:08:25 10° NNE 04:13:57 80° ESE 04:14:30 71° SSE
Cosmos 972 Rocket 4.2 04:18:46 56° SSE 04:19:41 68° ESE 04:25:14 10° NNE
Cosmos 2266 Rocket 3.8 04:16:07 10° NNW 04:22:17 71° W 04:22:50 66° SW
Cosmos 1933 4.0 04:25:11 52° NE 04:25:11 52° NE 04:28:28 10° NNE
Cosmos 1833 4.0 04:23:53 42° NNW 04:25:55 87° WSW 04:31:31 10° SSE
Cosmos 1140 Rocket 4.3 04:24:22 10° NNW 04:29:29 51° ENE 04:34:35 10° SE
Lacrosse 5 rocket 2.6 04:32:40 29° NNE 04:32:40 29° NNE 04:35:44 10° ENE
Cosmos 1867 3.4 04:32:55 70° W 04:33:22 74° NW 04:38:53 10° NE
ERS-2 2.9 04:30:03 10° NNE 04:32:56 50° NE 04:32:56 50° NE
IRS-1C Rocket 3.9 04:28:52 10° NNE 04:34:10 74° WNW 04:34:45 67° WSW
CZ-4B R/B 4.3 04:30:30 10° N 04:32:40 29° N 04:32:40 29° N
Sich 1 Rocket 3.5 04:32:14 10° N 04:36:49 90° NE 04:41:20 10° S
Cosmos 1908 Rocket 3.5 04:34:27 10° N 04:38:57 90° NNE 04:43:26 10° S
PSLV R/B 3.7 04:36:22 10° N 04:39:56 60° NNW 04:39:56 60° NNW
Cosmos 1782 Rocket 4.0 04:40:01 10° N 04:44:29 63° ENE 04:48:54 10° SSE
MOS 1 Rocket 3.9 04:40:28 10° N 04:45:38 47° WNW 04:45:38 47° WNW
Okean-O 3.1 04:42:27 10° NNE 04:46:52 60° ESE 04:50:57 12° S
ATLAS 5 CENTAUR R/B 1.9 04:45:45 48° SSW 04:47:06 77° SE 04:52:24 10° NE
Cosmos 921 Rocket 3.6 04:48:06 41° NNW 04:48:06 41° NNW 04:51:23 10° N
Meteor 2-10 Rocket 3.9 04:46:17 10° S 04:51:11 61° E 04:56:13 10° NNE
CZ-4B R/B 3.2 04:46:27 10° N 04:51:58 61° WNW 04:53:55 39° SW
Cosmos 2263 4.1 04:51:18 43° SW 04:53:09 73° WNW 04:58:48 10° NNE
Cosmos 1943 Rocket 2.1 04:51:24 30° SSW 04:54:16 86° ESE 04:59:53 10° NNE
Cosmos 1624 Rocket 4.0 04:53:48 45° SW 04:55:23 67° WNW 05:00:43 10° NNE
Cosmos 2056 Rocket 3.4 04:55:13 44° SW 04:56:48 69° WNW 05:02:02 10° NNE
SKYMED 2 4.1 04:56:05 10° SSE 05:00:22 60° ENE 05:04:40 10° N
Meteor 1-14 Rocket 4.2 04:54:36 10° NNW 05:00:31 89° W 05:06:15 10° S
Cosmos 1954 Rocket 3.9 04:57:31 10° NNW 05:02:49 72° WSW 05:08:07 10° SSE
Cosmos 1244 Rocket 4.4 04:59:35 10° NNW 05:05:50 69° W 05:11:57 10° S
Okean 2 Rocket 3.1 05:03:06 10° N 05:07:31 80° E 05:11:55 10° SSE
BREEZE M DEB (TANK) 4.2 04:59:47 25° WSW 05:08:58 82° SSE 05:13:47 10° E
CZ-4C R/B 3.2 05:04:29 10° SSW 05:09:34 46° ESE 05:15:20 10° NE
Cosmos 1862 Rocket 4.4 05:15:00 31° WNW 05:15:00 31° WNW 05:18:25 10° N
FAST 4.2 05:17:06 56° NNW 05:17:34 79° W 05:20:29 10° S
SL-08 R/B 4.4 05:14:56 10° N 05:21:16 81° W 05:27:35 10° S
Cosmos 1703 Rocket 3.5 05:18:40 10° SSW 05:22:55 63° WNW 05:27:17 10° N
Meteor 1-31 Rocket 2.8 05:19:21 10° N 05:23:12 58° WNW 05:25:51 19° SSW
Meteor 1-26 Rocket 4.1 05:20:53 10° SSW 05:26:33 69° WNW 05:32:09 10° N
Cosmos 2151 Rocket 4.1 05:22:08 10° N 05:26:39 63° ENE 05:31:06 10° SSE
Thor Agena Rocket 3.8 05:21:57 10° S 05:26:56 45° W 05:31:54 10° NNW
ADEOS II 2.7 05:22:21 10° N 05:27:04 34° WNW 05:29:11 25° WSW
Okean O Rocket 3.1 05:25:19 10° NNW 05:27:57 19° NW 05:27:57 19° NW
SJ-6F 4.3 05:24:23 10° N 05:28:34 76° WNW 05:32:40 10° SSW
DMSP B5D1-3 4.5 05:24:35 10° SSE 05:29:42 89° ENE 05:34:50 10° NNW
Cosmos 2297 Rocket 3.5 05:24:39 10° NNW 05:29:59 40° NE 05:35:16 10° ESE
Meteor 1-25 Rocket 4.2 05:24:30 10° NNW 05:30:20 74° W 05:36:09 10° S
Lacrosse 5 1.8 05:28:28 21° SW 05:31:51 90° SE 05:36:58 10° NE
S3M 4.0 05:30:08 10° S 05:36:29 84° W 05:42:48 10° N
Cosmos 1452 Rocket 3.5 05:32:53 10° SSW 05:38:09 71° WNW 05:43:28 10° NNE
USA 234 3.2 05:32:33 10° ENE 05:39:07 84° NNW 05:44:58 14° WSW
CZ-3B DEB 1.9 05:42:00 12° NNE 05:42:00 12° NNE 05:42:32 10° NE
Cosmos 2219 3.3 05:37:39 10° NW 05:43:11 54° WSW 05:48:39 10° S
Cosmos 1553 Rocket 3.9 05:38:08 10° SSW 05:44:19 72° WNW 05:50:39 10° N
Cosmos 1741 Rocket 4.0 05:40:18 10° NNW 05:45:30 65° WSW 05:50:41 10° S
COSMO-SKYMED 1 2.8 05:44:17 10° S 05:48:28 46° W 05:52:39 10° NNW
Meteor 1-11 Rocket 4.3 05:43:12 10° N 05:49:10 65° ENE 05:55:02 10° SSE
Cosmos 2227 Rocket 2.6 05:44:21 10° NNW 05:50:02 65° ENE 05:55:41 10° SE
Cosmos 2221 Rocket 4.0 05:47:15 10° SW 05:51:36 43° WNW 05:55:58 10° N
Cosmos 2369 Rocket 3.3 05:49:11 17° W 05:52:08 26° NW 05:56:49 10° NNE
Abrixas 2.4 05:53:27 22° W 05:55:08 75° S 05:58:01 10° E
Meteor 1-10 Rocket 4.3 05:50:41 10° S 05:56:15 84° E 06:01:57 10° NNE
Cosmos 1656 Rocket 3.7 05:55:01 10° SW 06:00:40 65° WNW 06:06:20 10° NNE
Meteor 2-11 Rocket 4.4 05:55:15 10° S 06:01:22 85° W 06:07:34 10° N
Cosmos 1536 4.0 06:00:19 10° N 06:04:11 46° ENE 06:08:03 10° SSE
USA 81 4.0 05:59:17 10° SSW 06:04:31 67° W 06:09:49 10° N
ERS-2 4.1 06:05:17 10° NNW 06:07:00 13° WNW 06:07:44 12° WNW
ATLAS 3B R/B 3.6 06:02:21 10° SSW 06:09:42 58° ESE 06:16:48 10° NE
Cosmos 1709 Rocket 3.9 06:04:44 10° N 06:10:52 84° W 06:17:00 10° S
Cosmos 1140 Rocket 4.4 06:06:43 10° NW 06:10:59 26° W 06:15:16 10° SSW
Lacrosse 5 rocket 0.9 06:08:24 10° WNW 06:12:03 84° SW 06:15:39 10° SE
Tiangong 1 3.0 06:11:22 10° SW 06:13:39 21° S 06:15:58 10° ESE
SMAP 4.5 06:10:24 10° NNE 06:14:52 44° E 06:19:18 10° S
Okean 1-7 3.9 06:11:52 10° SW 06:15:34 28° WNW 06:19:17 10° N
Helios 1B rocket 3.9 06:12:30 10° SE 06:16:23 41° ENE 06:20:18 10° N
YAOGAN 1 4.4 06:12:50 10° NNE 06:16:53 37° E 06:20:54 10° SSE
Cosmos 1633 2.5 06:15:01 10° NNW 06:18:38 62° W 06:22:11 10° S
Okean-O 4.0 06:19:50 10° NNW 06:22:57 19° WNW 06:26:05 10° WSW
Cosmos 2315 Rocket 4.1 06:20:01 10° S 06:26:24 89° W 06:32:48 10° N
Meteor 1-28 Rocket 4.4 06:23:37 10° SSW 06:26:35 22° W 06:29:37 10° NW
CZ-2C R/B 2.8 06:22:02 10° NNE 06:26:54 72° ESE 06:31:54 10° S
